Location: Borojevi?i
(45.0486°N, 16.2297°E)
Time: 10:40:55
(UTC+00:00)

ALOS 2 - Pass Details

Date: 08 August 2020
Orbit: 630 x 632 km, 97.9° (Epoch: 21 September)

Event Time Altitude Azimuth Distance (km) Brightness Sun altitude
Exits shadow 22:27:34 48° 339° (NNW) 829 3.5 -28.7°
Drops below altitude 10° 22:30:47 10° 345° (NNW) 2,025 6.1 -28.8°
Sets 22:33:00 0° 347° (NNW) 2,937 7.3 -28.8°
